Messwerte Bandar Lengeh

Temperatur

Temperatur
°C
1626978600 23.00 23.00 34
1626982200 0.00 0.00
1626985800 1.00 1.00
1626989400 2.00 2.00 33
1626993000 3.00 3.00
1626996600 4.00 4.00
1627000200 5.00 5.00 33
1627003800 6.00 6.00
1627007400 7.00 7.00 32
1627011000 8.00 8.00 33
1627014600 9.00 9.00 35
1627018200 10.00 10.00 35
1627021800 11.00 11.00 36
1627025400 12.00 12.00 36
1627029000 13.00 13.00 36
1627032600 14.00 14.00 36
1627036200 15.00 15.00 37
1627039800 16.00 16.00 37
1627043400 17.00 17.00 37
1627047000 18.00 18.00 36
1627050600 19.00 19.00 37
1627054200 20.00 20.00 36
1627057800 21.00 21.00 35
1627061400 22.00 22.00 35

Aktuellste Messwerte

Wettercharakter
Wetter: meist klar
Temperatur
35 °C
Feuchtigkeit
70 %
Wind
10 km/hWindrichtung: West
Luftdruck
993 hPa
Messzeit: 23. Juli 2021, 22.30Datenquelle: METAR

Weitere Messstationen in der Nähe

Messstation Temperatur Entfernung
Abu Musa - 80 km
Kish Island / Kish 34 °C 85 km
Ras Al Khaimah 36 °C 153 km
Schardscha 37 °C 155 km
Dubai 40 °C 156 km
Bandar Abbas 37 °C 168 km
Fujairah 36 °C 223 km

Wind

Windrichtung Böen Mittelwind
° km/h km/h
1626978600 23.00 22.00 - 23.00 270° 15
1626982200 0.00 23.00 - 0.00
1626985800 1.00 0.00 - 1.00
1626989400 2.00 1.00 - 2.00 220° 10
1626993000 3.00 2.00 - 3.00
1626996600 4.00 3.00 - 4.00
1627000200 5.00 4.00 - 5.00 0
1627003800 6.00 5.00 - 6.00
1627007400 7.00 6.00 - 7.00 290° 5
1627011000 8.00 7.00 - 8.00 320° 10
1627014600 9.00 8.00 - 9.00 0
1627018200 10.00 9.00 - 10.00 230° 10
1627021800 11.00 10.00 - 11.00 220° 15
1627025400 12.00 11.00 - 12.00 230° 20
1627029000 13.00 12.00 - 13.00 230° 20
1627032600 14.00 13.00 - 14.00 230° 20
1627036200 15.00 14.00 - 15.00 200° 20
1627039800 16.00 15.00 - 16.00 210° 15
1627043400 17.00 16.00 - 17.00 20° 20
1627047000 18.00 17.00 - 18.00 210° 15
1627050600 19.00 18.00 - 19.00 240° 15
1627054200 20.00 19.00 - 20.00 230° 15
1627057800 21.00 20.00 - 21.00 240° 10
1627061400 22.00 21.00 - 22.00 240° 15

Ihre Wetterstation

Fehlt Ihre Wetterstation auf unserem Portal?

Schreiben Sie an network@meteonews.ch

Klima

Wann ist es am wärmsten? Wann regnet es am wenigsten? Unsere Klimadaten geben Auskunft.